Location: ?????
(32.7281°N, 34.9563°E)
Time: 12:36:24
(UTC+00:00)

Cosmos 1992 Rocket - Pass Details

Date: 29 October 2020
Orbit: 759 x 765 km, 74.0° (Epoch: 26 November)

Event Time Altitude Azimuth Distance (km) Brightness Sun altitude
Rises 15:47:44 0° 196° (SSW) 3,203 7.6 -12.3°
Reaches altitude 10° 15:50:05 10° 196° (SSW) 2,281 6.8 -12.8°
Maximum altitude 15:55:16 87° 286° (WNW) 764 4.0 -13.9°
Drops below altitude 10° 16:00:29 10° 16° (NNE) 2,292 6.2 -15.0°
Sets 16:02:51 0° 17° (NNE) 3,221 7.0 -15.5°
